• In Hungary
  • List of Countries
  • For 7 days
  • Water Temperature
  • Satellite Maps
  • Weather Map
  • News
  • Weather Widgets
  • user-avatar
    Login

    Hourly Weather Geraardsbergen

    Today, 21 September, Friday

    Time Temperature Precipitation Wind Pressure Humidity
    00:00 +20°C° 0 mm 6 mps 754 mmHg 63%
    01:00 +20°C° 0 mm 7 mps 753 mmHg 65%
    02:00 +20°C° 0 mm 8 mps 752 mmHg 66%
    03:00 +18°C° 0 mm 9 mps 751 mmHg 68%
    04:00 +18°C° 0.9 mm 9 mps 752 mmHg 72%
    05:00 +17°C° 0.9 mm 9 mps 752 mmHg 77%
    06:00 +17°C° 0.9 mm 10 mps 752 mmHg 81%
    07:00 +16°C° 0.3 mm 9 mps 753 mmHg 75%
    08:00 +15°C° 0.3 mm 9 mps 754 mmHg 69%
    09:00 +15°C° 0.3 mm 9 mps 755 mmHg 63%
    10:00 +15°C° 0 mm 9 mps 756 mmHg 57%
    11:00 +16°C° 0 mm 9 mps 756 mmHg 51%
    12:00 +17°C° 0 mm 9 mps 757 mmHg 45%
    13:00 +17°C° 0 mm 9 mps 757 mmHg 45%
    14:00 +17°C° 0 mm 9 mps 758 mmHg 45%
    15:00 +17°C° 0 mm 9 mps 758 mmHg 46%
    16:00 +16°C° 0 mm 8 mps 758 mmHg 49%
    17:00 +15°C° 0 mm 7 mps 759 mmHg 53%
    18:00 +14°C° 0 mm 6 mps 759 mmHg 56%
    19:00 +13°C° 0 mm 6 mps 760 mmHg 58%
    20:00 +13°C° 0 mm 6 mps 760 mmHg 60%
    21:00 +13°C° 0 mm 6 mps 761 mmHg 62%
    22:00 +13°C° 0 mm 6 mps 761 mmHg 64%
    23:00 +11°C° 0 mm 6 mps 761 mmHg 66%

    Tomorrow, 22 September, Saturday

    Time Temperature Precipitation Wind Pressure Humidity
    00:00 +12°C° 0 mm 5 mps 762 mmHg 68%
    01:00 +12°C° 0 mm 5 mps 762 mmHg 70%
    02:00 +10°C° 0 mm 5 mps 763 mmHg 72%
    03:00 +11°C° 0 mm 4 mps 763 mmHg 75%
    04:00 +11°C° 0 mm 4 mps 763 mmHg 75%
    05:00 +11°C° 0 mm 4 mps 763 mmHg 75%
    06:00 +11°C° 0 mm 4 mps 764 mmHg 76%
    07:00 +12°C° 0 mm 5 mps 764 mmHg 72%
    08:00 +14°C° 0 mm 5 mps 764 mmHg 68%
    09:00 +15°C° 0 mm 5 mps 764 mmHg 64%
    10:00 +16°C° 0.1 mm 5 mps 764 mmHg 60%
    11:00 +16°C° 0.1 mm 5 mps 764 mmHg 56%
    12:00 +17°C° 0.1 mm 5 mps 765 mmHg 53%
    13:00 +17°C° 0 mm 5 mps 764 mmHg 52%
    14:00 +17°C° 0 mm 5 mps 764 mmHg 51%
    15:00 +17°C° 0 mm 5 mps 764 mmHg 51%
    16:00 +17°C° 0 mm 4 mps 764 mmHg 56%
    17:00 +16°C° 0 mm 3 mps 764 mmHg 60%
    18:00 +14°C° 0 mm 2 mps 764 mmHg 65%
    19:00 +14°C° 0 mm 2 mps 764 mmHg 67%
    20:00 +14°C° 0 mm 2 mps 764 mmHg 70%
    21:00 +14°C° 0 mm 2 mps 764 mmHg 72%
    22:00 +14°C° 0.3 mm 2 mps 764 mmHg 76%
    23:00 +13°C° 0.3 mm 2 mps 763 mmHg 80%

    Day after tomorrow, 23 September, Sunday

    Time Temperature Precipitation Wind Pressure Humidity
    00:00 +13°C° 0.3 mm 2 mps 762 mmHg 84%
    01:00 +12°C° 0.6 mm 3 mps 762 mmHg 86%
    02:00 +12°C° 0.6 mm 3 mps 761 mmHg 87%
    03:00 +12°C° 0.6 mm 4 mps 760 mmHg 89%
    04:00 +12°C° 0.6 mm 4 mps 759 mmHg 89%
    05:00 +13°C° 0.6 mm 5 mps 759 mmHg 89%
    06:00 +13°C° 0.6 mm 5 mps 758 mmHg 90%
    07:00 +15°C° 0.5 mm 6 mps 758 mmHg 91%
    08:00 +17°C° 0.5 mm 6 mps 757 mmHg 91%
    09:00 +18°C° 0.5 mm 7 mps 757 mmHg 92%
    10:00 +20°C° 0.1 mm 7 mps 756 mmHg 89%
    11:00 +21°C° 0.1 mm 8 mps 756 mmHg 87%
    12:00 +22°C° 0.1 mm 9 mps 756 mmHg 84%
    13:00 +21°C° 0.2 mm 9 mps 755 mmHg 85%
    14:00 +21°C° 0.2 mm 9 mps 754 mmHg 86%
    15:00 +21°C° 0.2 mm 8 mps 753 mmHg 86%
    16:00 +21°C° 0.7 mm 9 mps 752 mmHg 86%
    17:00 +21°C° 0.7 mm 10 mps 751 mmHg 86%
    18:00 +19°C° 0.7 mm 10 mps 749 mmHg 86%
    19:00 +18°C° 2.6 mm 10 mps 749 mmHg 85%
    20:00 +17°C° 2.6 mm 9 mps 749 mmHg 84%
    21:00 +16°C° 2.6 mm 9 mps 749 mmHg 83%
    22:00 +14°C° 0.3 mm 10 mps 751 mmHg 81%
    23:00 +12°C° 0.3 mm 11 mps 754 mmHg 79%

    24 September, Monday

    Time Temperature Precipitation Wind Pressure Humidity
    00:00 +10°C° 0.3 mm 13 mps 756 mmHg 78%
    01:00 +11°C° 0.1 mm 10 mps 758 mmHg 75%
    02:00 +11°C° 0.1 mm 8 mps 761 mmHg 73%
    03:00 +11°C° 0.1 mm 6 mps 764 mmHg 71%
    04:00 +10°C° 0 mm 6 mps 765 mmHg 70%
    05:00 +10°C° 0 mm 6 mps 766 mmHg 70%
    06:00 +10°C° 0 mm 5 mps 768 mmHg 69%
    07:00 +12°C° 0.1 mm 5 mps 769 mmHg 66%
    08:00 +13°C° 0.1 mm 6 mps 770 mmHg 63%
    09:00 +13°C° 0.1 mm 6 mps 771 mmHg 60%
    10:00 +14°C° 0 mm 6 mps 772 mmHg 56%
    11:00 +15°C° 0 mm 7 mps 773 mmHg 53%
    12:00 +15°C° 0 mm 7 mps 773 mmHg 49%
    13:00 +15°C° 0 mm 7 mps 774 mmHg 50%
    14:00 +15°C° 0 mm 7 mps 774 mmHg 50%
    15:00 +15°C° 0 mm 6 mps 774 mmHg 51%
    16:00 +13°C° 0 mm 5 mps 775 mmHg 56%
    17:00 +12°C° 0 mm 4 mps 775 mmHg 61%
    18:00 +11°C° 0 mm 3 mps 776 mmHg 66%
    19:00 +10°C° 0 mm 3 mps 776 mmHg 67%
    20:00 +10°C° 0 mm 2 mps 777 mmHg 69%
    21:00 +9°C° 0 mm 2 mps 777 mmHg 71%
    22:00 +9°C° 0 mm 2 mps 777 mmHg 72%
    23:00 +8°C° 0 mm 2 mps 778 mmHg 73%

    25 September, Tuesday

    Time Temperature Precipitation Wind Pressure Humidity
    00:00 +9°C° 0 mm 1 mps 778 mmHg 74%
    01:00 +9°C° 0 mm 1 mps 778 mmHg 75%
    02:00 +8°C° 0 mm 1 mps 778 mmHg 76%
    03:00 +8°C° 0 mm 1 mps 778 mmHg 78%
    04:00 +8°C° 0 mm 1 mps 778 mmHg 78%
    05:00 +7°C° 0 mm 1 mps 778 mmHg 79%
    06:00 +7°C° 0 mm 1 mps 778 mmHg 80%
    07:00 +9°C° 0 mm 1 mps 778 mmHg 73%
    08:00 +10°C° 0 mm 2 mps 778 mmHg 66%
    09:00 +13°C° 0 mm 2 mps 778 mmHg 59%
    10:00 +14°C° 0 mm 2 mps 778 mmHg 55%
    11:00 +14°C° 0 mm 3 mps 777 mmHg 50%
    12:00 +16°C° 0 mm 3 mps 777 mmHg 46%
    13:00 +16°C° 0 mm 3 mps 776 mmHg 46%
    14:00 +17°C° 0 mm 3 mps 775 mmHg 46%
    15:00 +17°C° 0 mm 3 mps 775 mmHg 46%
    16:00 +14°C° 0 mm 3 mps 775 mmHg 51%
    17:00 +13°C° 0 mm 3 mps 775 mmHg 56%
    18:00 +11°C° 0 mm 3 mps 775 mmHg 61%
    19:00 +10°C° 0 mm 3 mps 775 mmHg 63%
    20:00 +10°C° 0 mm 2 mps 775 mmHg 65%
    21:00 +9°C° 0 mm 2 mps 775 mmHg 67%
    22:00 +9°C° 0 mm 2 mps 775 mmHg 68%
    23:00 +8°C° 0 mm 2 mps 774 mmHg 70%

    26 September, Wednesday

    Time Temperature Precipitation Wind Pressure Humidity
    00:00 +8°C° 0 mm 2 mps 774 mmHg 71%
    01:00 +7°C° 0 mm 2 mps 774 mmHg 71%
    02:00 +7°C° 0 mm 2 mps 774 mmHg 72%
    03:00 +7°C° 0 mm 2 mps 773 mmHg 72%
    04:00 +7°C° 0 mm 2 mps 773 mmHg 73%
    05:00 +6°C° 0 mm 2 mps 773 mmHg 73%
    06:00 +6°C° 0 mm 2 mps 773 mmHg 73%
    07:00 +9°C° 0 mm 3 mps 773 mmHg 67%
    08:00 +11°C° 0 mm 3 mps 773 mmHg 60%
    09:00 +13°C° 0 mm 3 mps 772 mmHg 54%
    10:00 +16°C° 0 mm 3 mps 772 mmHg 50%
    11:00 +18°C° 0 mm 3 mps 772 mmHg 45%
    12:00 +20°C° 0 mm 3 mps 771 mmHg 40%
    13:00 +20°C° 0 mm 3 mps 771 mmHg 41%
    14:00 +21°C° 0 mm 3 mps 770 mmHg 41%
    15:00 +21°C° 0 mm 3 mps 770 mmHg 41%
    16:00 +19°C° 0 mm 2 mps 769 mmHg 47%
    17:00 +17°C° 0 mm 2 mps 769 mmHg 53%
    18:00 +15°C° 0 mm 2 mps 769 mmHg 59%
    19:00 +14°C° 0 mm 2 mps 769 mmHg 61%
    20:00 +13°C° 0 mm 3 mps 769 mmHg 62%
    21:00 +12°C° 0 mm 3 mps 769 mmHg 64%
    22:00 +12°C° 0 mm 3 mps 769 mmHg 63%
    23:00 +11°C° 0 mm 3 mps 768 mmHg 62%
    Show more